Weather History for KAND - March, 2013

Change the Weather History Date:

Saturday, March 2, 2013

  Actual Average Record
Temperature  
Mean Temperature 42 °F -  
Max Temperature 48 °F 63 °F 82 °F (1951)
Min Temperature 34 °F 38 °F 18 °F (1980)
Degree Days  
Heating Degree Days 24    
Moisture  
Dew Point 32 °F    
Average Humidity 76    
Maximum Humidity 100    
Minimum Humidity 46    
Precipitation  
Precipitation 0.06 in - - ()
Sea Level Pressure  
Sea Level Pressure 29.90 in    
Wind  
Wind Speed 6 mph (WNW)    
Max Wind Speed 12 mph    
Max Gust Speed 18 mph    
Visibility 10 miles    
Events Rain , Snow    
Averages and records for this station are not official NWS values.
T = Trace of Precipitation, MM = Missing Value Source: NWS Daily Summary

Daily Weather History Graph

Daily Weather History Graph

Search for Another Location

Airport or City:

Trip Planner

Search our weather history database for the weather conditions in past years. The results will help you decide how hot, cold, wet, or windy it might be!

Date:

Astronomy

Mar. 02, 2013 Rise Set
Actual Time 6:58 AM EST 6:27 PM EST
Civil Twilight 6:33 AM EST 6:53 PM EST
Nautical Twilight 6:03 AM EST 7:22 PM EST
Astronomical Twilight 5:34 AM EST 7:51 PM EST
Moon 11:50 PM EST (3/2) 9:40 AM EST (3/2)
Length of Visible Light 12h 20m
Length of Day
11h 29m
Waning Gibbous, 74% of the Moon is Illuminated
Mar 2
Waning Gibbous
Mar 4
Last Quarter
Mar 11
New
Mar 19
First Quarter
Mar 27
Full

Hourly Weather History & Observations

Time (EST) Temp. Windchill Dew Point Humidity Pressure Visibility Wind Dir Wind Speed Gust Speed Precip Events Conditions
12:56 AM 41.0 °F - 30.9 °F 67% 29.91 in 10.0 mi Calm Calm - N/A   Overcast
1:56 AM 39.9 °F 36.7 °F 30.9 °F 70% 29.91 in 10.0 mi West 4.6 mph - N/A   Overcast
2:56 AM 39.9 °F 35.1 °F 30.9 °F 70% 29.88 in 10.0 mi West 6.9 mph - 0.00 in   Overcast
4:56 AM 39.0 °F 33.4 °F 33.1 °F 79% 29.88 in 10.0 mi NW 8.1 mph - 0.00 in   Overcast
5:56 AM 37.9 °F 33.5 °F 34.0 °F 86% 29.88 in 10.0 mi NW 5.8 mph - N/A   Overcast
6:06 AM 37.4 °F 31.4 °F 33.8 °F 87% 29.88 in 10.0 mi NW 8.1 mph - N/A   Overcast
6:18 AM 37.4 °F 32.1 °F 33.8 °F 87% 29.88 in 10.0 mi NW 6.9 mph - 0.00 in Rain Light Rain
7:15 AM 35.6 °F 28.6 °F 35.6 °F 100% 29.90 in 10.0 mi WNW 9.2 mph - 0.00 in Rain Light Rain
7:56 AM 35.1 °F 31.0 °F 34.0 °F 96% 29.91 in 10.0 mi WNW 4.6 mph - 0.00 in   Overcast
8:31 AM 35.6 °F 29.9 °F 33.8 °F 93% 29.91 in 9.0 mi WNW 6.9 mph - 0.01 in Rain Light Rain
8:48 AM 35.6 °F 29.9 °F 35.6 °F 100% 29.91 in 10.0 mi WNW 6.9 mph - 0.01 in Rain Light Rain
8:56 AM 36.0 °F 29.6 °F 35.1 °F 97% 29.92 in 10.0 mi WNW 8.1 mph - 0.01 in Rain Light Rain
9:16 AM 35.6 °F 29.9 °F 35.6 °F 100% 29.92 in 10.0 mi WNW 6.9 mph - 0.01 in Rain Light Rain
9:43 AM 35.6 °F 29.9 °F 33.8 °F 93% 29.92 in 8.0 mi NW 6.9 mph - 0.01 in Snow Light Snow
9:56 AM 35.1 °F 30.1 °F 34.0 °F 96% 29.93 in 7.0 mi WNW 5.8 mph - 0.02 in Snow Light Snow
10:43 AM 37.4 °F 34.9 °F 35.6 °F 93% 29.92 in 10.0 mi North 3.5 mph - 0.01 in   Overcast
10:56 AM 37.9 °F - 36.0 °F 93% 29.92 in 10.0 mi Calm Calm - 0.01 in   Overcast
11:56 AM 43.0 °F - 36.0 °F 76% 29.91 in 10.0 mi Calm Calm - N/A   Scattered Clouds
12:21 PM 44.6 °F 40.7 °F 35.6 °F 71% 29.90 in 10.0 mi WSW 6.9 mph - N/A   Mostly Cloudy
12:28 PM 44.6 °F 40.2 °F 35.6 °F 71% 29.90 in 10.0 mi WSW 8.1 mph - N/A   Mostly Cloudy
12:56 PM 46.0 °F 42.5 °F 33.1 °F 61% 29.89 in 10.0 mi WNW 6.9 mph - N/A   Mostly Cloudy
1:23 PM 39.2 °F 33.6 °F 33.8 °F 81% 29.88 in 10.0 mi WSW 8.1 mph - 0.00 in Rain Light Rain
1:56 PM 41.0 °F 35.8 °F 36.0 °F 82% 29.88 in 10.0 mi SSW 8.1 mph - 0.02 in Rain Light Rain
2:56 PM 45.0 °F 40.1 °F 34.0 °F 65% 29.86 in 10.0 mi SW 9.2 mph - 0.00 in   Overcast
3:56 PM 48.0 °F - 28.9 °F 48% 29.86 in 10.0 mi WSW 11.5 mph 18.4 mph N/A   Overcast
4:56 PM 46.0 °F 41.9 °F 26.1 °F 46% 29.86 in 10.0 mi WSW 8.1 mph - N/A   Mostly Cloudy
5:56 PM 44.1 °F 39.0 °F 25.0 °F 47% 29.88 in 10.0 mi West 9.2 mph - N/A   Mostly Cloudy
6:56 PM 43.0 °F 38.8 °F 26.1 °F 51% 29.89 in 10.0 mi WNW 6.9 mph - N/A   Overcast
7:56 PM 42.1 °F 37.7 °F 24.1 °F 49% 29.91 in 10.0 mi West 6.9 mph - N/A   Overcast
8:56 PM 39.0 °F 33.4 °F 27.0 °F 62% 29.94 in 10.0 mi West 8.1 mph - N/A   Overcast
9:56 PM 37.9 °F 32.1 °F 25.0 °F 60% 29.95 in 10.0 mi WNW 8.1 mph - N/A   Overcast
10:56 PM 35.1 °F 31.0 °F 23.0 °F 61% 29.96 in 10.0 mi NNW 4.6 mph - N/A   Clear
11:56 PM 34.0 °F 28.8 °F 21.0 °F 59% 29.95 in 10.0 mi NW 5.8 mph - N/A   Clear